Weather History for Chehalis, WA

Change the Weather History Date:

Saturday, March 15, 2014

  Actual Average (KOLM) Record (KOLM)
Temperature  
Mean Temperature 52 °F 44 °F  
Max Temperature 64 °F 54 °F 63 °F (1962)
Min Temperature 41 °F 35 °F 24 °F (1988)
Degree Days  
Heating Degree Days 12 21  
Month to date heating degree days 324  
Since 1 July heating degree days 4046  
Cooling Degree Days 0 0  
Month to date cooling degree days 0  
Year to date cooling degree days 0  
Growing Degree Days 2 (Base 50)    
Moisture  
Dew Point 44 °F    
Average Humidity 76    
Maximum Humidity 100    
Minimum Humidity 52    
Precipitation  
Precipitation 0.02 in 0.18 in 1.33 in (1997)
Month to date precipitation 2.68  
Year to date precipitation 15.79  
Sea Level Pressure  
Sea Level Pressure 30.27 in    
Wind  
Wind Speed 5 mph (SSW)    
Max Wind Speed 16 mph    
Max Gust Speed 26 mph    
Visibility 10 miles    
Events Rain    
T = Trace of Precipitation, MM = Missing Value Source: NWS Daily Summary

Daily Weather History Graph

Daily Weather History Graph

Search for Another Location

Airport:

Trip Planner

Search our weather history database for the weather conditions in past years. The results will help you decide how hot, cold, wet, or windy it might be!

Date:

Astronomy

Mar. 15, 2014 Rise Set
Actual Time 7:24 AM PDT 7:17 PM PDT
Civil Twilight 6:54 AM PDT 7:47 PM PDT
Nautical Twilight 6:19 AM PDT 8:23 PM PDT
Astronomical Twilight 5:43 AM PDT 8:59 PM PDT
Moon 6:42 PM PDT (3/15) 6:41 AM PDT (3/15)
Length of Visible Light 12h 53m
Length of Day
11h 53m
Waxing Gibbous, 99% of the Moon is Illuminated
Mar 15
Waxing Gibbous
Mar 16
Full
Mar 23
Last Quarter
Mar 30
New
Apr 7
First Quarter

Hourly Weather History & Observations

Time (PDT) Temp. Windchill Dew Point Humidity Pressure Visibility Wind Dir Wind Speed Gust Speed Precip Events Conditions
12:15 AM 42.8 °F - 42.8 °F 100% 30.35 in 10.0 mi Calm Calm - N/A   Mostly Cloudy
12:35 AM 42.8 °F - 42.8 °F 100% 30.35 in 10.0 mi Calm Calm - N/A   Mostly Cloudy
12:55 AM 42.8 °F - 41.0 °F 93% 30.35 in 10.0 mi Calm Calm - N/A   Scattered Clouds
1:15 AM 41.0 °F - 41.0 °F 100% 30.34 in 10.0 mi Calm Calm - N/A   Mostly Cloudy
1:35 AM 42.8 °F - 41.0 °F 93% 30.33 in 10.0 mi Calm Calm - N/A   Overcast
1:55 AM 42.8 °F - 42.8 °F 100% 30.33 in 10.0 mi Calm Calm - N/A   Overcast
2:15 AM 42.8 °F - 42.8 °F 100% 30.31 in 10.0 mi Calm Calm - N/A   Overcast
2:35 AM 42.8 °F - 42.8 °F 100% 30.31 in 10.0 mi Calm Calm - N/A   Mostly Cloudy
2:55 AM 42.8 °F - 42.8 °F 100% 30.31 in 10.0 mi Calm Calm - N/A   Partly Cloudy
3:15 AM 41.0 °F - 41.0 °F 100% 30.31 in 10.0 mi Calm Calm - N/A   Scattered Clouds
3:35 AM 41.0 °F - 41.0 °F 100% 30.30 in 10.0 mi Calm Calm - N/A   Scattered Clouds
3:55 AM 41.0 °F - 41.0 °F 100% 30.29 in 10.0 mi Calm Calm - N/A   Mostly Cloudy
4:15 AM 41.0 °F - 41.0 °F 100% 30.28 in 10.0 mi Calm Calm - N/A   Mostly Cloudy
4:35 AM 41.0 °F 38.0 °F 41.0 °F 100% 30.29 in 9.0 mi SSW 4.6 mph - N/A   Mostly Cloudy
4:55 AM 42.8 °F 39.3 °F 41.0 °F 93% 30.29 in 10.0 mi South 5.8 mph - N/A   Overcast
5:15 AM 44.6 °F 43.1 °F 41.0 °F 87% 30.29 in 10.0 mi SW 3.5 mph - N/A   Overcast
5:35 AM 44.6 °F 42.2 °F 39.2 °F 81% 30.28 in 10.0 mi South 4.6 mph - N/A   Overcast
5:55 AM 44.6 °F 40.7 °F 39.2 °F 81% 30.28 in 10.0 mi South 6.9 mph - N/A   Overcast
6:15 AM 44.6 °F 41.4 °F 39.2 °F 81% 30.29 in 10.0 mi SSW 5.8 mph - N/A   Overcast
6:35 AM 44.6 °F 41.4 °F 39.2 °F 81% 30.28 in 10.0 mi South 5.8 mph - N/A   Overcast
6:55 AM 44.6 °F 41.4 °F 39.2 °F 81% 30.28 in 10.0 mi SSW 5.8 mph - N/A   Overcast
7:15 AM 44.6 °F 41.4 °F 39.2 °F 81% 30.28 in 10.0 mi SSW 5.8 mph - N/A   Overcast
7:35 AM 46.4 °F 45.2 °F 39.2 °F 76% 30.29 in 10.0 mi SW 3.5 mph - N/A   Overcast
7:55 AM 46.4 °F 43.5 °F 39.2 °F 76% 30.29 in 10.0 mi South 5.8 mph - N/A   Overcast
8:15 AM 46.4 °F 41.9 °F 41.0 °F 81% 30.28 in 10.0 mi SSE 9.2 mph - N/A   Overcast
8:35 AM 46.4 °F 45.2 °F 41.0 °F 81% 30.28 in 10.0 mi South 3.5 mph - N/A   Overcast
8:55 AM 46.4 °F 45.2 °F 41.0 °F 81% 30.30 in 10.0 mi SSW 3.5 mph - N/A   Overcast
9:15 AM 46.4 °F 44.3 °F 41.0 °F 81% 30.29 in 10.0 mi South 4.6 mph - N/A   Overcast
9:35 AM 48.2 °F - 41.0 °F 76% 30.29 in 10.0 mi South 5.8 mph - N/A   Mostly Cloudy
9:55 AM 50.0 °F - 39.2 °F 66% 30.28 in 8.0 mi South 5.8 mph - N/A   Mostly Cloudy
10:15 AM 50.0 °F - 41.0 °F 71% 30.29 in 10.0 mi South 6.9 mph - N/A   Mostly Cloudy
10:35 AM 51.8 °F - 41.0 °F 67% 30.29 in 10.0 mi SSE 8.1 mph - N/A   Scattered Clouds
10:55 AM 53.6 °F - 42.8 °F 67% 30.29 in 10.0 mi South 9.2 mph - N/A   Scattered Clouds
11:15 AM 53.6 °F - 42.8 °F 67% 30.29 in 10.0 mi SSE 10.4 mph - N/A   Overcast
11:35 AM 55.4 °F - 44.6 °F 67% 30.28 in 8.0 mi South 12.7 mph - N/A   Overcast
11:55 AM 57.2 °F - 44.6 °F 63% 30.28 in 10.0 mi South 12.7 mph 17.3 mph N/A   Overcast
12:15 PM 57.2 °F - 44.6 °F 63% 30.28 in 10.0 mi South 12.7 mph - N/A   Overcast
12:35 PM 59.0 °F - 44.6 °F 59% 30.28 in 10.0 mi South 10.4 mph - N/A   Mostly Cloudy
12:55 PM 62.6 °F - 44.6 °F 52% 30.28 in 10.0 mi SSW 10.4 mph 17.3 mph N/A   Partly Cloudy
1:15 PM 62.6 °F - 46.4 °F 55% 30.27 in 10.0 mi SSW 11.5 mph 16.1 mph N/A   Mostly Cloudy
1:35 PM 62.6 °F - 46.4 °F 55% 30.26 in 10.0 mi SSW 13.8 mph 19.6 mph N/A   Mostly Cloudy
1:55 PM 64.4 °F - 46.4 °F 52% 30.25 in 10.0 mi SSW 13.8 mph 19.6 mph N/A   Partly Cloudy
2:15 PM 62.6 °F - 48.2 °F 59% 30.25 in 10.0 mi SSW 13.8 mph 24.2 mph N/A   Scattered Clouds
2:35 PM 62.6 °F - 48.2 °F 59% 30.25 in 10.0 mi SW 15.0 mph 23.0 mph N/A   Overcast
2:55 PM 62.6 °F - 48.2 °F 59% 30.25 in 9.0 mi SSW 11.5 mph 21.9 mph N/A   Overcast
3:15 PM 62.6 °F - 48.2 °F 59% 30.25 in 9.0 mi SSW 13.8 mph 23.0 mph N/A   Overcast
3:35 PM 60.8 °F - 48.2 °F 63% 30.24 in 10.0 mi SSW 11.5 mph - N/A   Overcast
3:55 PM 62.6 °F - 48.2 °F 59% 30.24 in 10.0 mi SSW 12.7 mph 20.7 mph N/A   Overcast
4:15 PM 60.8 °F - 48.2 °F 63% 30.24 in 10.0 mi SSW 13.8 mph 18.4 mph N/A   Overcast
4:35 PM 60.8 °F - 48.2 °F 63% 30.24 in 10.0 mi SSW 9.2 mph - N/A   Overcast
4:55 PM 60.8 °F - 48.2 °F 63% 30.24 in 10.0 mi SSW 12.7 mph 18.4 mph N/A   Overcast
5:15 PM 60.8 °F - 48.2 °F 63% 30.24 in 10.0 mi SSW 11.5 mph 17.3 mph N/A   Mostly Cloudy
5:35 PM 60.8 °F - 48.2 °F 63% 30.23 in 10.0 mi SSW 16.1 mph 19.6 mph N/A   Mostly Cloudy
5:55 PM 59.0 °F - 48.2 °F 67% 30.23 in 10.0 mi SSW 11.5 mph 17.3 mph N/A   Scattered Clouds
6:15 PM 59.0 °F - 48.2 °F 67% 30.24 in 10.0 mi SW 11.5 mph 18.4 mph N/A   Mostly Cloudy
6:35 PM 59.0 °F - 48.2 °F 67% 30.24 in 10.0 mi SW 11.5 mph - N/A   Overcast
6:55 PM 57.2 °F - 48.2 °F 72% 30.25 in 5.0 mi SSW 10.4 mph 17.3 mph N/A   Haze
7:15 PM 57.2 °F - 48.2 °F 72% 30.24 in 10.0 mi SSW 11.5 mph 19.6 mph N/A   Overcast
7:35 PM 57.2 °F - 46.4 °F 67% 30.24 in 10.0 mi SSW 12.7 mph 21.9 mph N/A   Overcast
7:55 PM 57.2 °F - 44.6 °F 63% 30.24 in 10.0 mi SSW 11.5 mph 19.6 mph N/A   Overcast
8:15 PM 57.2 °F - 44.6 °F 63% 30.23 in 10.0 mi SSW 12.7 mph 26.5 mph N/A   Overcast
8:35 PM 57.2 °F - 44.6 °F 63% 30.24 in 10.0 mi SSW 13.8 mph 19.6 mph N/A   Overcast
8:55 PM 57.2 °F - 44.6 °F 63% 30.25 in 10.0 mi SSW 13.8 mph 18.4 mph N/A   Overcast
9:15 PM 55.4 °F - 46.4 °F 72% 30.26 in 7.0 mi SSW 15.0 mph - N/A Rain Light Rain
9:35 PM 55.4 °F - 48.2 °F 77% 30.25 in 8.0 mi SSW 16.1 mph 25.3 mph N/A   Overcast
9:55 PM 53.6 °F - 48.2 °F 82% 30.25 in 10.0 mi South 11.5 mph - 0.01 in Rain Light Rain
10:15 PM 53.6 °F - 48.2 °F 82% 30.25 in 10.0 mi South 15.0 mph 19.6 mph 0.01 in Rain Light Rain
10:35 PM 53.6 °F - 48.2 °F 82% 30.25 in 10.0 mi South 12.7 mph 19.6 mph 0.01 in Rain Light Rain
10:55 PM 53.6 °F - 48.2 °F 82% 30.27 in 10.0 mi SSW 13.8 mph - 0.01 in Rain Light Rain
11:15 PM 53.6 °F - 48.2 °F 82% 30.26 in 10.0 mi SSW 12.7 mph - N/A Rain Light Rain
11:35 PM 53.6 °F - 48.2 °F 82% 30.26 in 10.0 mi South 9.2 mph - N/A   Overcast
11:55 PM 53.6 °F - 50.0 °F 88% 30.26 in 10.0 mi South 8.1 mph - N/A   Overcast